José Martí International Airport
MUHA : now visible

Airfield :











YOU CAN JOIN US ON...

 
LOGIN :

Register | Disclaimer

   EN    FR    IT 

 









Legend :    VFR   Marginal VFR   IFR   Intensive IFR   Very Intensive IFR
Visi :
Ceiling :
>= 8 km
>= 3000ft
5 to 8 km
1000 to 3000 ft
1500m to 5 km
500 to 1000 ft
800 to 1500m
200 to 500 ft
< 800m
< 200 ft
Symbols :   Thunderstorms  Fog  Heavy snow  Heavy precipitations  Wind > 20 kt






- Airport Elevation : 210 ft
- IATA code : HAV


MUHA - José Martí International

CURRENT METAR :
  • 261355Z 11010KT 090V150 9000 FEW020 SCT100 27/25 Q1013

EXPIRED METARs :
  • 261255Z 13005KT 070V170 9000 FEW025 BKN080 25/25 Q1013
  • 261235Z 13005KT 090V170 8000 -RA FEW018TCU 25/25 Q1012
  • 261221Z 10005KT 060V150 5000 RA BKN018 24/24 Q1013
  • 261155Z 08003KT 9000 SCT040 24/24 Q1012

TAF MUHA
Valid from the 26 at 12:00 until the 27 at 12:00 UTC


261100Z 2612/2712 VRB03KT 9000 SCT030
BECMG 2614/2616 15010KT
TEMPO 2618/2622 VRB10KT 5000 SHRA FEW018CB BKN025
BECMG 2702/2704 VRB03KT SCT030
MUFH FIR / North America



MET'MAP, your aeronautical weather chart ! - Copyright ORBIFLY December 2007 - Disclaimer

ORBIFLY MET'MAP TEAM :

Programming & Development : Alexandra Zaïnal
Concept & original design : Baudouin d'Aumeries
Assistance for programming : Marc-Olivier Méhu
Technical & hardware support : Manuel Goepfert

Contact : metmap@orbifly.com




SOURCES & CREDITS :

   NOAA       Earth
Advisory